Weather History for KCHA - April, 2013

Change the Weather History Date:

Tuesday, April 2, 2013

  Actual Average Record
Temperature  
Mean Temperature 51 °F 57 °F  
Max Temperature 60 °F 69 °F 88 °F (1940)
Min Temperature 41 °F 45 °F 25 °F (1881)
Degree Days  
Heating Degree Days 14 9  
Month to date heating degree days 23 18  
Since 1 July heating degree days 2890 3044  
Cooling Degree Days 0 1  
Month to date cooling degree days 0 2  
Year to date cooling degree days 5 9  
Moisture  
Dew Point 26 °F    
Average Humidity 44    
Maximum Humidity 65    
Minimum Humidity 23    
Precipitation  
Precipitation 0.00 in 0.15 in 2.42 in (2000)
Month to date precipitation 0.00 0.30  
Year to date precipitation 18.39 15.03  
Snow  
Snow 0.00 in 0.00 in - ()
Month to date snowfall 0.0 0.0  
Since 1 July snowfall 0.3 3.8  
Snow Depth 0.00 in    
Sea Level Pressure  
Sea Level Pressure 30.18 in    
Wind  
Wind Speed 8 mph (North)    
Max Wind Speed 14 mph    
Max Gust Speed 17 mph    
Visibility 10 miles    
Events      
T = Trace of Precipitation, MM = Missing Value Source: NWS Daily Summary

Daily Weather History Graph

Daily Weather History Graph

Search for Another Location

Airport or City:

Trip Planner

Search our weather history database for the weather conditions in past years. The results will help you decide how hot, cold, wet, or windy it might be!

Date:

Astronomy

Apr. 02, 2013 Rise Set
Actual Time 7:25 AM EDT 8:03 PM EDT
Civil Twilight 7:00 AM EDT 8:28 PM EDT
Nautical Twilight 6:30 AM EDT 8:58 PM EDT
Astronomical Twilight 5:59 AM EDT 9:29 PM EDT
Moon 1:57 AM EDT (4/2) 12:25 PM EDT (4/2)
Length of Visible Light 13h 28m
Length of Day
12h 37m
Waning Gibbous, 56% of the Moon is Illuminated
Apr 2
Waning Gibbous
Apr 3
Last Quarter
Apr 10
New
Apr 18
First Quarter
Apr 25
Full

Hourly Weather History & Observations

Time (EDT) Temp. Windchill Dew Point Humidity Pressure Visibility Wind Dir Wind Speed Gust Speed Precip Events Conditions
12:53 AM 52.0 °F - 37.0 °F 57% 30.09 in 10.0 mi North 6.9 mph - N/A   Clear
1:53 AM 50.0 °F - 37.0 °F 61% 30.09 in 10.0 mi Calm Calm - N/A   Clear
2:53 AM 48.9 °F - 36.0 °F 61% 30.11 in 10.0 mi North 11.5 mph - N/A   Clear
3:53 AM 45.0 °F 40.6 °F 33.1 °F 63% 30.12 in 10.0 mi NNW 8.1 mph - N/A   Clear
4:53 AM 45.0 °F 39.7 °F 30.9 °F 58% 30.14 in 10.0 mi NNW 10.4 mph - N/A   Clear
5:53 AM 44.1 °F 39.5 °F 28.0 °F 53% 30.17 in 10.0 mi North 8.1 mph - N/A   Clear
6:53 AM 42.1 °F 37.1 °F 27.0 °F 55% 30.18 in 10.0 mi North 8.1 mph - N/A   Clear
7:53 AM 42.1 °F 38.4 °F 27.0 °F 55% 30.21 in 10.0 mi North 5.8 mph - N/A   Scattered Clouds
8:53 AM 44.1 °F 38.1 °F 24.1 °F 45% 30.23 in 10.0 mi North 11.5 mph - N/A   Scattered Clouds
9:53 AM 45.0 °F 39.7 °F 24.1 °F 44% 30.23 in 10.0 mi NNE 10.4 mph - N/A   Mostly Cloudy
10:53 AM 48.9 °F - 23.0 °F 36% 30.24 in 10.0 mi North 12.7 mph - N/A   Mostly Cloudy
11:53 AM 48.0 °F - 21.0 °F 34% 30.25 in 10.0 mi North 9.2 mph - N/A   Mostly Cloudy
12:53 PM 51.1 °F - 21.0 °F 31% 30.22 in 10.0 mi Variable 4.6 mph - N/A   Mostly Cloudy
1:53 PM 54.0 °F - 23.0 °F 30% 30.21 in 10.0 mi NNE 8.1 mph - N/A   Mostly Cloudy
2:53 PM 57.0 °F - 23.0 °F 27% 30.19 in 10.0 mi Calm Calm - N/A   Mostly Cloudy
3:53 PM 60.1 °F - 23.0 °F 24% 30.16 in 10.0 mi Variable 4.6 mph - N/A   Mostly Cloudy
4:53 PM 59.0 °F - 21.9 °F 24% 30.14 in 10.0 mi North 8.1 mph - N/A   Mostly Cloudy
5:53 PM 57.0 °F - 23.0 °F 27% 30.16 in 10.0 mi North 11.5 mph - N/A   Mostly Cloudy
6:53 PM 55.0 °F - 23.0 °F 29% 30.17 in 10.0 mi NNW 13.8 mph - N/A   Overcast
7:53 PM 52.0 °F - 23.0 °F 32% 30.17 in 10.0 mi North 6.9 mph - N/A   Overcast
8:53 PM 52.0 °F - 21.9 °F 31% 30.18 in 10.0 mi North 5.8 mph - N/A   Overcast
9:53 PM 52.0 °F - 24.1 °F 34% 30.19 in 10.0 mi North 8.1 mph - N/A   Overcast
10:53 PM 51.1 °F - 25.0 °F 36% 30.21 in 10.0 mi NNW 8.1 mph - N/A   Overcast
11:53 PM 50.0 °F - 26.6 °F 40% 30.21 in 10.0 mi North 6.9 mph - N/A   Overcast